カタログに戻る

FREGAT DEB

LostUNKNOWN
NORAD 46106·DEBRIS·🇷🇺 Russia

打ち上げ Jul 18, 2011 から Baikonur Cosmodrome

Loading…

次のパス (今後24時間)

TLE

古いSource: Space-Track

元期: Aug 10, 2020, 07:43 UTC

1 46106U 11037JR  20223.32155471 +.00080496 +00000-0 +34400-1 0  9995
2 46106 051.0769 199.9714 1564344 229.0642 116.4082 11.74192966000478

AllMySatでFREGAT DEBをリアルタイム追跡

Download on the App Store